When you browse on this site, cookies collect data to enhance your experience and personalize the content and advertising you see.
Visit our Privacy Policy to learn more. By continuing to use the site, you agree to this use of cookies and data.
  • In United Kingdom
  • List of Countries
  • For 7 days
  • Water Temperature
  • Weather Map
  • Weather Widgets
  • user-avatar
    Login

    Hourly Weather Santa Cruz

    Today, 19 October, Saturday

    Time Temperature Precipitation Wind Pressure Humidity
    00:00 +26°C° 0 mm 4 mps 724 mmHg 54%
    01:00 +25°C° 0 mm 5 mps 724 mmHg 53%
    02:00 +23°C° 0 mm 5 mps 724 mmHg 51%
    03:00 +22°C° 0 mm 5 mps 724 mmHg 51%
    04:00 +22°C° 0 mm 5 mps 725 mmHg 50%
    05:00 +22°C° 0 mm 5 mps 725 mmHg 49%
    06:00 +22°C° 0.1 mm 6 mps 726 mmHg 51%
    07:00 +23°C° 0.1 mm 6 mps 726 mmHg 52%
    08:00 +23°C° 0.1 mm 6 mps 727 mmHg 53%
    09:00 +24°C° 0.4 mm 6 mps 727 mmHg 51%
    10:00 +26°C° 0.4 mm 6 mps 727 mmHg 49%
    11:00 +27°C° 0.4 mm 6 mps 727 mmHg 47%
    12:00 +28°C° 0 mm 6 mps 727 mmHg 43%
    13:00 +30°C° 0 mm 5 mps 726 mmHg 39%
    14:00 +32°C° 0 mm 5 mps 725 mmHg 35%
    15:00 +30°C° 0 mm 5 mps 724 mmHg 37%
    16:00 +30°C° 0 mm 5 mps 724 mmHg 39%
    17:00 +29°C° 0 mm 4 mps 723 mmHg 40%
    18:00 +27°C° 0 mm 4 mps 723 mmHg 44%
    19:00 +25°C° 0 mm 4 mps 723 mmHg 48%
    20:00 +24°C° 0 mm 3 mps 723 mmHg 51%
    21:00 +22°C° 0 mm 3 mps 724 mmHg 53%
    22:00 +22°C° 0 mm 3 mps 724 mmHg 54%
    23:00 +21°C° 0 mm 3 mps 724 mmHg 55%

    Tomorrow, 20 October, Sunday

    Time Temperature Precipitation Wind Pressure Humidity
    00:00 +21°C° 0 mm 2 mps 724 mmHg 56%
    01:00 +20°C° 0 mm 2 mps 723 mmHg 58%
    02:00 +20°C° 0 mm 2 mps 722 mmHg 59%
    03:00 +20°C° 0 mm 2 mps 722 mmHg 58%
    04:00 +20°C° 0 mm 2 mps 722 mmHg 58%
    05:00 +20°C° 0 mm 2 mps 722 mmHg 57%
    06:00 +23°C° 0 mm 2 mps 722 mmHg 54%
    07:00 +24°C° 0 mm 2 mps 723 mmHg 50%
    08:00 +26°C° 0 mm 2 mps 723 mmHg 46%
    09:00 +28°C° 0 mm 2 mps 723 mmHg 43%
    10:00 +30°C° 0 mm 2 mps 722 mmHg 40%
    11:00 +33°C° 0 mm 3 mps 722 mmHg 38%
    12:00 +34°C° 0 mm 4 mps 721 mmHg 36%
    13:00 +36°C° 0 mm 5 mps 720 mmHg 34%
    14:00 +38°C° 0 mm 6 mps 719 mmHg 32%
    15:00 +36°C° 0 mm 6 mps 718 mmHg 34%
    16:00 +35°C° 0 mm 6 mps 718 mmHg 36%
    17:00 +34°C° 0 mm 6 mps 718 mmHg 39%
    18:00 +32°C° 0 mm 5 mps 718 mmHg 44%
    19:00 +30°C° 0 mm 4 mps 718 mmHg 48%
    20:00 +28°C° 0 mm 3 mps 719 mmHg 53%
    21:00 +27°C° 0 mm 2 mps 719 mmHg 56%
    22:00 +27°C° 0 mm 2 mps 720 mmHg 60%
    23:00 +26°C° 0 mm 2 mps 720 mmHg 63%

    Day after tomorrow, 21 October, Monday

    Time Temperature Precipitation Wind Pressure Humidity
    00:00 +26°C° 0 mm 3 mps 721 mmHg 61%
    01:00 +26°C° 0 mm 4 mps 721 mmHg 59%
    02:00 +26°C° 0 mm 5 mps 721 mmHg 58%
    03:00 +26°C° 0 mm 5 mps 721 mmHg 57%
    04:00 +25°C° 0 mm 5 mps 721 mmHg 57%
    05:00 +25°C° 0 mm 5 mps 722 mmHg 57%
    06:00 +26°C° 0 mm 5 mps 723 mmHg 54%
    07:00 +26°C° 0 mm 6 mps 723 mmHg 51%
    08:00 +27°C° 0 mm 6 mps 724 mmHg 49%
    09:00 +28°C° 0 mm 6 mps 724 mmHg 47%
    10:00 +28°C° 0 mm 6 mps 724 mmHg 45%
    11:00 +29°C° 0 mm 6 mps 725 mmHg 43%
    12:00 +29°C° 0 mm 6 mps 724 mmHg 42%
    13:00 +28°C° 0 mm 5 mps 723 mmHg 41%
    14:00 +28°C° 0 mm 5 mps 723 mmHg 40%
    15:00 +28°C° 0 mm 5 mps 722 mmHg 38%
    16:00 +29°C° 0 mm 4 mps 722 mmHg 37%
    17:00 +29°C° 0 mm 4 mps 722 mmHg 35%
    18:00 +28°C° 0 mm 4 mps 722 mmHg 35%
    19:00 +28°C° 0 mm 4 mps 723 mmHg 35%
    20:00 +27°C° 0 mm 4 mps 723 mmHg 34%
    21:00 +27°C° 0 mm 4 mps 724 mmHg 34%
    22:00 +27°C° 0 mm 4 mps 724 mmHg 34%
    23:00 +26°C° 0 mm 4 mps 724 mmHg 33%

    22 October, Tuesday

    Time Temperature Precipitation Wind Pressure Humidity
    00:00 +26°C° 0 mm 4 mps 724 mmHg 33%
    01:00 +26°C° 0 mm 4 mps 724 mmHg 32%
    02:00 +26°C° 0 mm 4 mps 724 mmHg 31%
    03:00 +25°C° 0 mm 4 mps 724 mmHg 30%
    04:00 +25°C° 0 mm 4 mps 724 mmHg 30%
    05:00 +25°C° 0 mm 4 mps 724 mmHg 29%
    06:00 +25°C° 0 mm 4 mps 724 mmHg 29%
    07:00 +26°C° 0 mm 5 mps 725 mmHg 28%
    08:00 +26°C° 0 mm 5 mps 725 mmHg 28%
    09:00 +28°C° 0 mm 5 mps 725 mmHg 25%
    10:00 +30°C° 0 mm 4 mps 725 mmHg 22%
    11:00 +33°C° 0 mm 4 mps 724 mmHg 19%
    12:00 +34°C° 0 mm 4 mps 724 mmHg 17%
    13:00 +35°C° 0 mm 4 mps 723 mmHg 15%
    14:00 +37°C° 0 mm 3 mps 722 mmHg 13%
    15:00 +36°C° 0 mm 3 mps 721 mmHg 14%
    16:00 +36°C° 0 mm 3 mps 721 mmHg 15%
    17:00 +35°C° 0 mm 3 mps 720 mmHg 16%
    18:00 +31°C° 0 mm 2 mps 720 mmHg 20%
    19:00 +28°C° 0 mm 1 mps 721 mmHg 25%
    20:00 +25°C° 0 mm 1 mps 721 mmHg 30%
    21:00 +24°C° 0 mm 1 mps 721 mmHg 31%
    22:00 +23°C° 0 mm 1 mps 721 mmHg 33%
    23:00 +23°C° 0 mm 1 mps 721 mmHg 35%

    23 October, Wednesday

    Time Temperature Precipitation Wind Pressure Humidity
    00:00 +22°C° 0 mm 1 mps 721 mmHg 36%
    01:00 +22°C° 0 mm 1 mps 721 mmHg 37%
    02:00 +21°C° 0 mm 1 mps 721 mmHg 38%
    03:00 +21°C° 0 mm 1 mps 721 mmHg 39%
    04:00 +21°C° 0 mm 1 mps 721 mmHg 40%
    05:00 +19°C° 0 mm 2 mps 721 mmHg 41%
    06:00 +23°C° 0 mm 2 mps 722 mmHg 37%
    07:00 +25°C° 0 mm 2 mps 723 mmHg 32%
    08:00 +27°C° 0 mm 2 mps 723 mmHg 28%
    09:00 +30°C° 0 mm 2 mps 723 mmHg 25%
    10:00 +34°C° 0 mm 2 mps 723 mmHg 22%
    11:00 +36°C° 0 mm 2 mps 723 mmHg 19%
    12:00 +37°C° 0 mm 2 mps 722 mmHg 18%
    13:00 +38°C° 0 mm 2 mps 721 mmHg 17%
    14:00 +39°C° 0 mm 3 mps 720 mmHg 16%
    15:00 +38°C° 0 mm 3 mps 720 mmHg 17%
    16:00 +38°C° 0 mm 3 mps 719 mmHg 18%
    17:00 +37°C° 0 mm 3 mps 719 mmHg 19%
    18:00 +34°C° 0 mm 2 mps 719 mmHg 24%
    19:00 +30°C° 0 mm 1 mps 719 mmHg 29%
    20:00 +27°C° 0 mm 1 mps 720 mmHg 35%
    21:00 +26°C° 0 mm 1 mps 720 mmHg 36%
    22:00 +26°C° 0 mm 1 mps 720 mmHg 38%
    23:00 +25°C° 0 mm 1 mps 721 mmHg 39%

    24 October, Thursday

    Time Temperature Precipitation Wind Pressure Humidity
    00:00 +25°C° 0 mm 1 mps 721 mmHg 40%
    01:00 +24°C° 0 mm 1 mps 721 mmHg 41%
    02:00 +24°C° 0 mm 1 mps 720 mmHg 42%
    03:00 +24°C° 0 mm 1 mps 721 mmHg 41%
    04:00 +24°C° 0 mm 1 mps 721 mmHg 41%
    05:00 +25°C° 0 mm 2 mps 721 mmHg 40%
    06:00 +25°C° 0 mm 1 mps 722 mmHg 39%
    07:00 +26°C° 0 mm 1 mps 722 mmHg 37%
    08:00 +27°C° 0 mm 1 mps 723 mmHg 36%
    09:00 +31°C° 0 mm 1 mps 723 mmHg 31%
    10:00 +34°C° 0 mm 1 mps 723 mmHg 25%
    11:00 +39°C° 0 mm 1 mps 723 mmHg 20%
    12:00 +40°C° 0 mm 2 mps 722 mmHg 20%
    13:00 +40°C° 0 mm 2 mps 721 mmHg 19%
    14:00 +41°C° 0 mm 2 mps 720 mmHg 19%
    15:00 +40°C° 0 mm 3 mps 719 mmHg 20%
    16:00 +39°C° 0 mm 3 mps 719 mmHg 21%
    17:00 +40°C° 0 mm 4 mps 718 mmHg 23%
    18:00 +36°C° 0 mm 3 mps 718 mmHg 28%
    19:00 +32°C° 0 mm 2 mps 719 mmHg 34%
    20:00 +29°C° 0 mm 1 mps 719 mmHg 39%
    21:00 +29°C° 0 mm 1 mps 719 mmHg 41%
    22:00 +29°C° 0 mm 2 mps 720 mmHg 43%
    23:00 +29°C° 0 mm 2 mps 720 mmHg 44%
    Show more